Regional Weather Roundup
Issued by NWS Pendleton, OR

Home | Current Version | Previous Version | Text Only | Print | Product List | Glossary On
Versions: 1 2 3 4 5 6 7 8 9 10 11 12 13 14 15 16 17 18 19 20 21 22 23 24 25 26 27 28 29 30 31 32 33 34 35 36 37 38 39 40 41 42 43 44 45 46 47 48 49 50
000
ASUS46 KPDT 160925
RWRPDT
PENDLETON REGIONAL WEATHER ROUNDUP
NATIONAL WEATHER SERVICE PENDLETON OREGON
200 AM PDT TUE SEP 16 2014

NOTE: FAIR INDICATES FEW OR NO CLOUDS BELOW 12,000 FEET WITH NO
SIGNIFICANT WEATHER AND/OR OBSTRUCTIONS TO VISIBILITY.

# INDICATES UNOFFICIAL STATION AND DATA

WAZ520-161010-
EAST SLOPES OF WASHINGTON CASCADES

CITY            SKY/WX      TMP DP  RH  WIND    PRES   REMARKS
#BUMPING DAM    N/A         49  N/A N/A N1      N/A
#CLE ELUM HS    N/A         49  37  63  CALM    29.89S
#CLE ELUM 2NW   N/A         47  37  68  CALM    N/A
#CLE ELUM LAKE  N/A         62  33  34  CALM    29.81F
#CLIFFDEL 2NW   N/A         50  36  58  CALM    N/A
#GLENWOOD       N/A         47  42  83  CALM    29.87F
#MANASTASH CYN  N/A         54  31  41  CALM    29.93F
#NELSON         N/A         47  42  83  CALM    29.90F
#NELSON 3SW     N/A         54  38  55  CALM    30.05F
#NILE           N/A         48  38  68  CALM    29.18S
#RONALD 2NW     N/A         58  36  44  CALM    29.83F
#TEANAWAY 4NE   N/A         50  37  61  CALM    N/A
#TROUT LAKE 1NE N/A         55  41  59  NW1     29.85F
$$

WAZ521-161010-
SIMCOE HIGHLANDS

CITY            SKY/WX      TMP DP  RH  WIND    PRES   REMARKS
#BICKLETON HS   N/A         61  25  25  N7      29.97F
#CENTERVILLE 4W N/A         62  32  32  N2      29.65S
#CENTERVILLE 1SWN/A         47  27  45  CALM    29.80F
#GOLDENDALE     N/A         55  33  43  E2      N/A
#GOLDENDALE 1NE N/A         51  25  36  CALM    N/A
#GOLDENDALE 1S  N/A         55  35  47  CALM    29.86F
#GOLDENDALE 5WNWN/A         54  34  47  NE1     29.81F
#GOODNOE HILLS  N/A         64  33  31  E2      29.80S
#LYLE 6NE       N/A         65  32  29  CALM    29.78F
$$

WAZ026-161010-
KITTITAS VALLEY

CITY            SKY/WX      TMP DP  RH  WIND    PRES   REMARKS
ELLENSBURG AP   PTCLDY      53  38  57  NE6     29.91S
#ELLENSBURG CWU N/A         53  42  66  S1      29.83R
#ELLENSBURG 3NE N/A         48  39  71  NE2     29.91S
#ELLENSBURG     N/A         51  45  80  CALM    N/A
#ELLENSBURG 1E  N/A         47  38  71  CALM    N/A
#KITTITAS 3S    N/A         42  38  86  CALM    29.87S
#THORP 6N       N/A         57  34  42  NW3     29.86F
$$

WAZ027-161010-
YAKIMA VALLEY

CITY            SKY/WX      TMP DP  RH  WIND    PRES   REMARKS
SUNNYSIDE AP    MOCLDY      50  46  86  CALM    29.85F
YAKIMA AIRPORT  MOCLDY      55  44  66  W8      29.88S
YAKIMA-VAGABOND MOCLDY      59  30  33  E7      29.90S
#COWICHE 1N     N/A         63  39  41  N3      30.06S
#DONALD 2NE     N/A         64  32  30  CALM    30.18S
#GRANDVIEW      N/A         55  46  72  CALM    29.84F
#MABTON         N/A         56  43  62  CALM    29.84S
#MOXEE 2E       N/A         56  34  43  CALM    29.84F
#NACHES 2SW     N/A         63  40  43  W7      29.90S
#OUTLOOK DOT    N/A         N/A N/A N/A CALM    N/A
#SELAH 8E       N/A         56  29  35  SE5     N/A
#TERRACE HTS    N/A         56  44  64  CALM    29.81S
#TOPPENISH      N/A         59  46  62  CALM    29.75S
#WAPATO 4NE     N/A         64  32  30  CALM    30.18S
#WEST VALLEY    N/A         57  41  55  SW2     29.83S
#W YAKIMA       N/A         64  40  41  NW1     29.84S
#WHITE SWAN 5E  N/A         54  42  64  CALM    29.83F
#WILEY CITY 3W  N/A         58  47  67  CALM    29.88S
$$

WAZ028-161010-
LOWER COLUMBIA BASIN...WASHINGTON

CITY            SKY/WX      TMP DP  RH  WIND    PRES   REMARKS
HANFORD         CLOUDY      70  28  21  NW7     29.82S
PASCO           PTCLDY      51  48  89  N3      29.83F
PROSSER AWOS    N/A         52  48  86  W2      29.87F
RICHLAND AWOS   PTCLDY      59  48  67  CALM    29.83S
#BASIN CITY 5SW N/A         55  46  72  CALM    29.83S
#BENTON CITY    N/A         58  45  62  CALM    29.72F
#CONNELL 5N     N/A         59  35  40  NE2     29.81F
#CONNELL 5NW    N/A         57  40  53  CALM    29.78S
#ELTOPIA        N/A         59  46  62  N1      29.78F
#ELTOPIA 6NW    N/A         62  44  52  N1      28.81F
#KENNEWICK 3S   N/A         65  37  35  CALM    29.81F
#PASCO-BROADMOORN/A         58  48  69  NE1     29.72S
#PATERSON       N/A         58  46  64  N2      29.81R
#PROSSER        N/A         64  36  35  SW2     29.82S
#SAGEMOOR 2W    N/A         61  46  58  CALM    29.67F
#TOUCHET 2S     N/A         44  39  82  CALM    29.81S
#WEST PASCO     N/A         57  45  64  CALM    29.80F
$$

WAZ029-161010-
FOOTHILLS OF THE BLUES...WASHINGTON

CITY            SKY/WX      TMP DP  RH  WIND    PRES   REMARKS
WALLA WALLA AP  CLEAR       62  38  41  E6      29.86F
#DAYTON SCHOOL  N/A         57  34  42  CALM    29.87S
#LOWDEN 2SE     N/A         53  45  74  CALM    29.80S
#PLEASANT VIEW 1N/A         64  38  38  CALM    29.84S
#PRESCOTT       N/A         50  42  74  CALM    29.81F
#SUDBURY        N/A         53  N/A N/A CALM    N/A
#WHITMAN COLLEGEN/A         67  40  37  E3      29.85F
#WAITSBURG 8N   N/A         58  23  26  CALM    29.82R
#WALLA WALLA 5E N/A         60  36  41  W7      N/A
#WALLA WALLA U  N/A         62  44  52  CALM    29.82S
#WHITMAN MISSIONN/A         55  46  72  CALM    29.83F
$$

WAZ030-161010-
BLUE MOUNTAINS...WASHINGTON

CITY            SKY/WX      TMP DP  RH  WIND    PRES   REMARKS
$$

ORZ009-041-WAZ024-161010-
COLUMBIA RIVER GORGE

CITY            SKY/WX      TMP DP  RH  WIND    PRES   REMARKS
HOOD RIVER AP   PTCLDY      55  45  69  SW5     29.86S
THE DALLES AP   PTCLDY      58  41  53  E3      29.83F
#ARLINGTON AIRPON/A         59  34  39  SE1     N/A
#ARLINGTON HS   N/A         58  33  39  CALM    29.73S
#MARYHILL 2W    N/A         64  38  38  SW1     N/A
#MOSIER 1S      N/A         60  26  27  CALM    29.85F
#MURDOCK        N/A         62  44  52  CALM    29.84F
#RUFUS DOT      N/A         62  39  43  S7      N/A

$$

ORZ510-161010-
NORTH CENTRAL OREGON

CITY            SKY/WX      TMP DP  RH  WIND    PRES   REMARKS
#CHENOWITH 1W   N/A         63  35  35  NW12    N/A
#COW CYN RST AREN/A         61  30  31  N2      N/A
#DUFUR 9E       N/A         69  32  25  CALM    29.84F
#GRASS VALLEY   N/A         48  30  49  S2      N/A
#GRASS VALLEY 1SN/A         60  34  37  CALM    29.83S
#KENT DOT       N/A         62  30  30  N2      N/A
#MAUPIN SCHOOL  N/A         60  32  35  CALM    28.75S
#MORO SCHOOL    N/A         54  38  55  CALM    29.90F
#SHANIKO 5WSW   N/A         61  28  28  N3      N/A
#SHANIKO 4NW    N/A         61  28  28  N7      29.95S
#TYGH VALLEY 2NEN/A         57  35  43  CALM    29.83R
#WAPANITIA AIRPON/A         57  36  45  CALM    29.83F
#WASCO DOT      N/A         50  35  56  E5      N/A
#WASCO AIRPORT  N/A         62  30  30  S1      N/A
#WASCO 5NE      N/A         59  33  37  CALM    29.83S
$$

ORZ511-161010-
CENTRAL OREGON

CITY            SKY/WX      TMP DP  RH  WIND    PRES   REMARKS
BEND AIRPORT    PTCLDY      55  32  41  SW6     29.98S
MADRAS AIRPORT  PTCLDY      54  34  47  SE8     29.94R
REDMOND AIRPORT PTCLDY      51  29  42  S5      29.95S
#BEND 6E        N/A         54  30  40  CALM    29.74R
#BEND 1SW       N/A         50  32  50  CALM    N/A
#BEND-AWBREY    N/A         61  35  38  CALM    29.82S
#BEND-KIM LN    N/A         57  36  45  S3      29.95R
#CROOKED RVR RANN/A         56  34  43  SW23G32 29.83S
#CULVER         N/A         59  35  40  CALM    29.89S
#LAKE BILLY CHINN/A         58  -3   8  CALM    29.97S
#POWELL BUTTE 3EN/A         59  32  36  SE2     N/A
#POWELL BUTTE   N/A         58  30  34  SE2     29.62R
#PRINEVILLE 3N  N/A         48  38  68  CALM    29.81R
#WARM SPRINGS   N/A         61  36  39  CALM    29.86R


ORZ509-161010-
EAST SLOPES OF OREGON CASCADES

CITY            SKY/WX      TMP DP  RH  WIND    PRES   REMARKS
#BLUE BOX PASS  N/A         60   6  11  N2      N/A
#BLACK BUTTE RNCN/A         48  36  63  CALM    29.86S
#CAMP SHERMAN   N/A         43  32  65  CALM    29.83F
#LA PINE DOT    N/A         45  30  55  CALM    N/A
#LA PINE 4NW    N/A         45  29  53  CALM    29.88S
#LAVA BUTTE DOT N/A         50  31  48  CALM    N/A
#SISTERS AIRPOR N/A         46  36  68  CALM    29.94S
#SISTERS ODOT   N/A         45  N/A N/A CALM    N/A
#SISTERS 1NW    N/A         47  31  53  E3      N/A
#SISTERS 3N     N/A         44  32  62  CALM    N/A
#SUNRIVER       N/A         48  35  60  CALM    29.75S
#SUNRIVER AP    N/A         47  37  68  CALM    29.83R
#SUTTLE LK DOT  N/A         46  36  68  SE13    N/A    WCI 40
#TUMALO 3W      N/A         64  34  33  SW3     29.70R
#WANOGA BUTTE D N/A         60  32  35  E1      N/A

$$

ORZ044-161010-
LOWER COLUMBIA BASIN...OREGON

CITY            SKY/WX      TMP DP  RH  WIND    PRES   REMARKS
HERMISTON       PTCLDY      55  38  53  SE3     29.84R
#BOARDMAN SCHOOLN/A         70  46  42  CALM    29.83R
#BOARDMAN 3W    N/A         50  42  74  S1      29.56S
#BOARDMAN 8SW   N/A         55  39  55  S1      29.82R
#ECHO 8SW       N/A         54  36  50  S7      29.81F
#IONE SCHOOL    N/A         55  35  47  CALM    29.85F
#IRRIGON 4NW    N/A         51  48  89  S3      N/A
#UMATILLA       N/A         58  39  49  CALM    29.81R
$$

ORZ507-161010-
NORTHERN FOOTHILLS OF THE BLUES

CITY            SKY/WX      TMP DP  RH  WIND    PRES   REMARKS
PENDLETON AIRPT CLEAR       58  34  40  S8      29.87F
#ADAMS 3WNW     N/A         50  32  50  CALM    29.83F
#ATHENA         N/A         50  35  56  CALM    29.86F
#HELIX SCHOOL   N/A         52  32  46  CALM    29.83S
#HELIX 3N       N/A         62  34  35  N2      29.86S
#HELIX 6SW      N/A         56  34  43  E2      29.87
#HOLDMAN 5SE    N/A         58  34  40  CALM    29.87F
#HOLDMAN 6E     N/A         60  34  37  CALM    29.64S
#M-FREEWATER 5SEN/A         58  42  55  CALM    29.87F
#PENDLETON DNTN N/A         55  30  38  CALM    29.88S
#PDT AQUATIC CTRN/A         57  32  38  CALM    29.88S
#PDT SUNRIDGE   N/A         52  36  54  CALM    29.88S
#PENDLETON 7NW  N/A         56  36  47  CALM    26.40R
#PILOT ROCK     N/A         59  32  36  CALM    29.91S
#TUTUILLA       N/A         48  38  68  S1      29.85F
#UMAPINE 2E     N/A         57  45  64  CALM    29.80F
#WESTON SCHOOL  N/A         61  31  32  CALM    29.85F

$$

ORZ508-161010-
SOUTHERN FOOTHILLS OF THE BLUES

CITY            SKY/WX      TMP DP  RH  WIND    PRES   REMARKS
#AJAX           N/A         64  28  25  SW1     29.85S
#CONDON SCHOOL  N/A         59  34  39  CALM    29.89S
#CONDON 5W      N/A         65  28  25  NE7     29.91S
#FOSSIL SCHOOL  N/A         52  33  48  CALM    29.90S
#HEPPNER EOC    N/A         58  34  40  E3      29.79S
#HEPPNER 4NE    N/A         66  34  30  E6      29.81S
#LEXINGTON 2SE  N/A         58  35  42  E5      29.85F
#MIKKALO        N/A         57  27  31  SE5     29.88R
#OLEX 4N        N/A         58  34  40  S3      29.85S
#RUGGS 5NE      N/A         56  31  38  CALM    30.07S
#RUGGS 2SW      N/A         62  33  34  SW6     29.87F

$$

ORZ502-503-161010-
BLUE MOUNTAINS

CITY            SKY/WX      TMP DP  RH  WIND    PRES   REMARKS
MEACHAM         CLEAR       45  35  68  CALM    29.99S
#BATTLE MTN DOT N/A         60  40  47  S7      N/A
#HARDMAN 10S    N/A         63  32  31  CALM    30.05R
#HEPPNER 15SE   N/A         60  39  46  E1      29.89F
#LADD CYN SMT   N/A         61  33  35  E5      N/A
#LADD CREEK ODOTN/A         57  39  51  SW3     N/A
#N POWDER DOT   N/A         51  46  83  NW5     N/A
#PIKES PEAK     N/A         69  35  28  S5      27.99S
#TOLLGATE       N/A         64  34  33  CALM    29.98F
#TOLLGATE 9W    N/A         60  36  41  NE2     N/A
#TROY SCHOOL    N/A         55  43  64  CALM    29.72S
#UKIAH          N/A         46  34  63  CALM    29.93R
#WESTON 4E      N/A         64  35  34  CALM    29.75S
$$

ORZ505-161010-
JOHN DAY BASIN

CITY            SKY/WX      TMP DP  RH  WIND    PRES   REMARKS
JOHN DAY        PTCLDY      67  44  43  SE5     29.99S
#JOHN DAY KJDY  N/A         59  53  80  CALM    30.13R
#MONUMENT HS    N/A         56  39  53  CALM    29.92R
#MT. VERNON 5SE N/A         68  45  44  CALM    29.96R
#WINLOCK        N/A         60  34  37  CALM    30.02S
$$

ORZ506-161010-
OCHOCO AND JOHN DAY HIGHLANDS

CITY            SKY/WX      TMP DP  RH  WIND    PRES   REMARKS
#BUCK CREEK DOT N/A         63  44  50  S2      N/A
#HORSE RIDGE DO N/A         46  28  49  E1      N/A
#KEYES SMT DOT  N/A         64  32  30  NW3     N/A
#PAULINA SCHOOL N/A         51  39  63  CALM    29.98R
#PINE MTN OBS   N/A         60  32  35  SE15    N/A
#PRAIRIE CITY   N/A         54  43  66  CALM    29.97R
#SENECA 9NW     N/A         49  42  77  CALM    29.86R
$$

ORZ049-161010-
GRANDE RONDE VALLEY

CITY            SKY/WX      TMP DP  RH  WIND    PRES   REMARKS
LA GRANDE       CLEAR       54  30  40  CALM    29.94S
#COVE           N/A         56  41  57  CALM    29.88R
#COVE SCHOOL    N/A         57  39  51  CALM    29.94R
#COVE 6NW       N/A         50  40  68  CALM    29.92R
#ELGIN 3N       N/A         51  33  50  CALM    29.69S
#ELGIN 1E       N/A         53  35  50  CALM    N/A
#IMBLER SCHOOL  N/A         56  37  49  N5      29.91R
#LADD CYN DOT   N/A         64  36  35  NW2     N/A
#LA GRANDE ELEM N/A         58  37  45  CALM    29.93S
#UNION 1S       N/A         55  40  57  NW1     29.76S
$$

ORZ050-161010-
WALLOWA COUNTY

CITY            SKY/WX      TMP DP  RH  WIND    PRES   REMARKS
JOSEPH AIRPORT  PTCLDY      59  32  36  S3      30.03R
#ENTERPRISE AP  N/A         58  34  40  S2      29.94F
#ENTERPRISE HS  N/A         53  39  59  CALM    30.01S
#IMNAHA SCHOOL  N/A         58  37  45  CALM    29.89R
#IMNAHA 10S     N/A         65  34  31  SW6     29.96R
#JOSEPH 3N      N/A         52  37  56  CALM    30.02F
#JOSEPH 3W      N/A         70  37  30  SW3     29.89S
#LOSTINE        N/A         52  38  59  CALM    29.68S
#MT HOWARD 8000 N/A         58  35  42  S7      30.28F
#PROMISE 1S     N/A         57  35  43  CALM    29.90S
#SHEEP RDG 7000 N/A         63  36  36  CALM    29.76F
#WALLOWA SCHOOL N/A         49  40  71  CALM    30.80S



$$



USA.gov is the U.S. government's official web portal to all federal, state and local government web resources and services.